Bedford, MA

2:35 PM EST on February 08, 2016 (GMT -0500)
Hanscom

Weather History for KBED - June, 2013

Change the Weather History Date:

Sunday, June 16, 2013

  Actual Average Record
Temperature  
Mean Temperature 60 °F -  
Max Temperature 75 °F 78 °F 95 °F (1957)
Min Temperature 48 °F 56 °F 37 °F (1965)
Degree Days  
Heating Degree Days 4    
Growing Degree Days 10 (Base 50)    
Moisture  
Dew Point 53 °F    
Average Humidity 67    
Maximum Humidity 93    
Minimum Humidity 43    
Precipitation  
Precipitation 0.00 in - - ()
Sea Level Pressure  
Sea Level Pressure 29.87 in    
Wind  
Wind Speed 5 mph (SW)    
Max Wind Speed 13 mph    
Max Gust Speed 18 mph    
Visibility 10 miles    
Events      
Averages and records for this station are not official NWS values.
T = Trace of Precipitation, MM = Missing Value Source: NWS Daily Summary

Daily Weather History Graph

Daily Weather History Graph

Search for Another Location

Airport or City:

Trip Planner

Search our weather history database for the weather conditions in past years. The results will help you decide how hot, cold, wet, or windy it might be!

Date:

Astronomy

Jun. 16, 2013 Rise Set
Actual Time 5:07 AM EDT 8:24 PM EDT
Civil Twilight 4:32 AM EDT 8:59 PM EDT
Nautical Twilight 3:47 AM EDT 9:44 PM EDT
Astronomical Twilight 2:52 AM EDT 10:39 PM EDT
Moon 12:49 PM EDT (6/16) 12:19 AM EDT (6/16)
Length of Visible Light 16h 26m
Length of Day
15h 17m
Waxing Crescent, 49% of the Moon is Illuminated
Jun 16
Waxing Crescent
Jun 16
First Quarter
Jun 23
Full
Jun 30
Last Quarter
Jul 8
New

Hourly Weather History & Observations

Time (EDT) Temp. Dew Point Humidity Pressure Visibility Wind Dir Wind Speed Gust Speed Precip Events Conditions
12:56 AM 57.0 °F 48.9 °F 74% 29.96 in 10.0 mi SW 3.5 mph - N/A   Clear
1:56 AM 53.1 °F 50.0 °F 89% 29.96 in 10.0 mi Calm Calm - N/A   Clear
2:56 AM 50.0 °F 48.0 °F 93% 29.96 in 10.0 mi Calm Calm - N/A   Clear
3:56 AM 53.1 °F 46.9 °F 80% 29.95 in 10.0 mi Calm Calm - N/A   Clear
4:56 AM 48.9 °F 46.9 °F 93% 29.95 in 10.0 mi Calm Calm - N/A   Clear
5:56 AM 53.1 °F 48.9 °F 86% 29.96 in 10.0 mi Calm Calm - N/A   Clear
6:56 AM 57.0 °F 48.9 °F 74% 29.96 in 10.0 mi WSW 4.6 mph - N/A   Scattered Clouds
7:56 AM 64.9 °F 50.0 °F 58% 29.96 in 10.0 mi WSW 6.9 mph - N/A   Scattered Clouds
8:56 AM 68.0 °F 51.1 °F 55% 29.95 in 10.0 mi WSW 8.1 mph - N/A   Clear
9:56 AM 71.1 °F 50.0 °F 47% 29.94 in 10.0 mi SW 9.2 mph - N/A   Clear
10:56 AM 73.9 °F 50.0 °F 43% 29.92 in 10.0 mi WSW 8.1 mph - N/A   Clear
11:56 AM 73.0 °F 51.1 °F 46% 29.90 in 10.0 mi SW 12.7 mph 18.4 mph N/A   Mostly Cloudy
12:56 PM 71.1 °F 53.1 °F 53% 29.88 in 10.0 mi SSW 10.4 mph 16.1 mph N/A   Partly Cloudy
1:56 PM 71.1 °F 55.9 °F 59% 29.86 in 10.0 mi SSW 5.8 mph - N/A   Mostly Cloudy
2:56 PM 72.0 °F 57.0 °F 59% 29.83 in 10.0 mi South 11.5 mph - N/A   Mostly Cloudy
3:56 PM 73.0 °F 57.0 °F 57% 29.80 in 10.0 mi SSW 10.4 mph - N/A   Overcast
4:56 PM 72.0 °F 55.9 °F 57% 29.78 in 10.0 mi South 8.1 mph - N/A   Overcast
5:56 PM 71.1 °F 54.0 °F 55% 29.76 in 10.0 mi South 8.1 mph - N/A   Overcast
6:56 PM 71.1 °F 57.0 °F 61% 29.74 in 10.0 mi SSW 8.1 mph - N/A   Scattered Clouds
7:56 PM 70.0 °F 59.0 °F 68% 29.74 in 10.0 mi SSW 6.9 mph - N/A   Scattered Clouds
8:56 PM 68.0 °F 60.1 °F 76% 29.75 in 10.0 mi SW 5.8 mph - N/A   Scattered Clouds
9:56 PM 66.9 °F 61.0 °F 81% 29.77 in 10.0 mi SW 4.6 mph - N/A   Clear
10:56 PM 66.0 °F 61.0 °F 84% 29.79 in 10.0 mi West 10.4 mph 17.3 mph N/A   Partly Cloudy
11:56 PM 68.0 °F 57.0 °F 68% 29.80 in 10.0 mi Variable 4.6 mph - N/A   Clear